Wind_Speed
20 19 17 16 15 14 13 13 12 12 11 11 10 10 10 9 9 8 8 8 8 7 7 6 6 6 6 6 5 5 6 6 6 7 7 8 8 9 10 10 11 11 11
23 21 19 18 16 16 15 15 14 13 13 12 12 11 11 10 10 9 9 8 8 8 7 7 7 7 7 7 7 7 7 7 8 9 9 10 10 10 11 11 12 12 12
25 23 21 20 18 17 17 16 16 15 14 14 13 13 12 11 11 10 10 9 9 9 8 8 8 8 8 8 8 9 9 9 10 10 11 11 11 11 12 12 12 13 13
27 25 23 22 20 19 18 18 17 16 16 15 14 14 13 13 12 11 11 10 10 10 10 10 10 10 10 10 10 10 10 11 11 11 12 12 12 13 13 14 14 15 15
30 28 26 24 23 21 20 19 19 18 17 16 15 15 14 14 13 12 11 11 11 11 11 11 11 11 11 11 11 11 12 12 12 12 13 13 14 15 15 15 16 17 17
32 30 28 27 25 23 22 21 20 19 18 17 16 15 15 14 14 13 13 12 12 12 12 12 13 12 12 12 13 13 13 13 13 14 14 15 15 16 16 17 17 17 18
34 32 31 29 27 26 24 23 22 21 19 18 17 16 16 15 15 14 14 13 13 13 14 14 14 14 14 13 13 13 14 14 14 15 16 16 16 17 17 18 18 18 18
35 34 32 31 29 28 26 24 23 22 21 19 18 17 17 16 16 15 15 15 15 15 15 15 15 14 15 15 15 15 15 15 15 16 17 17 17 18 18 19 19 19 19
36 36 34 33 32 30 28 26 24 23 22 21 20 19 18 18 18 17 17 16 16 16 16 16 16 16 16 16 16 16 16 16 17 18 18 18 19 19 20 20 20 20 20
37 37 36 35 33 32 29 27 26 25 24 23 22 21 20 19 19 19 19 18 19 18 18 17 17 17 17 17 17 17 18 18 18 19 19 20 20 20 21 21 21 22 22
37 37 36 35 34 33 31 28 27 26 25 24 23 22 21 21 21 20 20 20 20 20 19 18 18 19 19 19 19 19 19 19 20 20 21 21 21 22 22 22 22 23 23
38 37 38 37 36 34 31 29 28 28 27 26 25 24 23 22 22 23 22 21 21 21 21 20 20 20 20 21 20 21 21 21 21 22 22 23 23 23 23 24 24 24 24
39 37 38 36 35 34 33 31 30 29 28 27 26 26 25 24 24 24 23 23 22 22 22 22 22 22 22 22 22 22 22 23 23 24 24 24 24 25 25 25 25 24 24
40 38 37 37 35 35 34 33 31 30 29 29 28 27 26 26 26 25 25 24 24 23 23 23 23 24 24 24 24 24 24 24 24 25 25 25 25 25 25 25 24 24 24
40 39 37 37 36 35 34 33 32 31 30 30 30 29 27 27 27 26 26 26 25 25 25 25 25 26 26 26 25 25 25 25 26 26 26 26 26 25 25 24 24 24 25
41 41 38 37 36 36 34 33 33 33 32 31 31 31 30 28 28 28 27 26 26 26 26 26 27 27 26 27 26 26 27 27 26 27 27 27 26 26 26 25 25 25 26
39 40 39 37 36 35 35 34 34 33 32 31 31 31 31 31 30 30 29 28 28 28 28 27 26 27 28 28 28 28 28 28 28 28 28 28 27 27 27 27 27 27 28
38 39 38 36 35 35 34 34 34 34 33 32 32 31 31 31 31 31 31 30 29 28 28 28 27 28 29 30 31 31 31 30 29 29 29 29 29 29 29 30 30 30 30
38 37 37 36 35 34 33 34 33 35 34 33 33 32 32 32 32 32 31 31 31 30 29 30 31 31 31 31 31 32 32 31 30 30 30 31 30 30 31 31 31 32 32
38 36 36 35 34 33 33 33 33 33 34 33 34 32 31 31 31 32 32 32 32 31 31 32 32 33 33 32 32 32 32 32 32 32 33 33 32 32 32 33 33 33 34
37 36 35 34 33 32 31 31 32 33 32 32 32 32 32 32 32 33 34 34 34 33 33 34 34 34 34 33 33 33 34 34 34 34 34 34 34 34 34 35 35 35 35
35 35 35 34 32 32 31 30 31 32 33 34 34 34 34 34 33 34 34 35 36 36 36 36 35 35 35 35 35 35 36 35 35 35 35 35 36 36 36 37 37 37 37
32 33 33 33 33 33 32 31 31 32 32 33 34 34 34 34 33 34 34 35 36 37 37 37 36 36 36 36 36 36 36 36 36 36 36 37 37 38 38 39 39 39 40
30 31 32 32 32 33 32 30 30 30 32 33 33 33 35 35 35 35 36 37 37 37 38 38 38 38 37 37 37 37 37 37 37 37 38 38 39 39 40 41 41 41 42
30 31 31 31 31 32 32 31 31 32 32 32 33 33 34 35 35 36 37 38 38 38 39 38 38 38 38 38 37 37 38 38 39 39 40 40 40 41 42 43 43 44 45
29 30 30 30 31 32 31 31 31 32 32 33 33 34 35 36 37 38 38 38 38 38 38 38 38 38 38 38 38 38 38 39 40 41 41 40 40 41 43 43 44 45 46
Wind_Direction
225 225 223 222 223 223 225 226 228 229 231 232 232 232 234 238 239 241 242 243 246 249 251 251 254 259 264 268 271 276 281 285 287 290 292 294 295 296 295 296 296 296 296
225 225 224 223 223 224 226 227 228 230 231 233 234 236 237 240 243 243 242 245 247 249 252 255 257 261 266 269 274 279 283 285 288 290 293 295 296 296 296 296 296 296 295
225 224 224 224 224 225 226 228 229 230 232 234 236 238 240 242 244 244 245 247 249 251 255 257 260 263 268 271 274 278 283 285 288 291 293 294 295 295 295 295 296 296 295
225 224 225 225 226 226 226 227 229 230 232 235 237 239 241 242 244 246 247 248 251 254 258 261 264 266 269 273 275 279 283 287 290 292 294 295 296 296 295 294 293 293 293
225 224 224 225 226 226 226 227 228 230 233 235 237 240 241 241 242 245 246 249 252 255 259 262 266 268 271 275 278 281 284 288 291 293 295 296 298 298 297 296 293 292 291
224 224 223 224 225 225 225 226 228 230 233 234 237 238 239 239 241 245 248 250 254 256 260 264 269 270 273 276 279 282 285 288 290 292 294 296 297 298 298 297 295 293 291
224 223 222 223 224 224 225 226 228 230 232 233 235 236 239 241 242 244 248 252 255 259 263 266 269 270 272 276 279 282 285 288 290 292 295 297 298 298 298 298 296 293 290
222 222 222 224 223 223 225 226 227 229 231 231 233 236 240 242 244 246 249 253 257 261 264 266 268 269 273 276 279 282 285 287 289 292 294 296 296 297 298 297 296 293 289
221 221 222 223 223 223 224 226 227 228 230 231 233 237 240 244 246 248 251 255 259 262 265 268 269 270 273 276 279 283 285 287 289 291 293 294 294 296 296 296 295 292 290
221 221 221 221 221 224 224 226 227 228 229 231 234 237 240 243 247 250 252 256 259 262 265 268 269 271 273 275 278 281 284 286 289 290 292 292 293 294 295 295 294 292 291
218 219 219 221 222 224 223 225 227 229 230 232 234 238 241 243 247 250 253 258 260 262 265 268 269 271 272 274 277 281 283 285 287 289 290 291 292 293 294 293 292 291 291
216 218 219 221 221 222 223 226 227 229 232 234 236 240 243 245 248 251 254 260 262 263 264 266 268 271 273 275 278 281 283 285 287 288 290 290 292 292 293 293 292 292 291
216 217 217 219 220 223 224 226 228 230 233 235 238 241 245 246 248 252 255 259 261 262 263 265 268 271 274 276 278 280 282 284 286 287 289 289 290 291 292 292 291 291 291
215 216 217 219 222 224 225 225 228 230 232 235 238 241 245 248 248 252 256 258 259 261 264 265 268 271 274 276 277 279 281 283 285 287 288 289 289 291 291 291 291 291 290
213 215 216 217 220 223 225 226 228 231 233 235 238 241 244 247 248 251 254 256 259 261 264 267 269 272 273 275 277 278 281 283 285 286 288 288 289 290 290 290 290 289 289
211 213 213 217 219 223 226 227 229 232 233 235 237 241 244 247 249 251 254 256 258 259 262 266 269 271 274 277 277 278 281 284 285 286 286 287 287 287 287 288 288 288 288
211 211 213 216 218 222 226 228 229 231 233 236 239 242 245 247 250 252 253 256 259 261 262 265 269 273 275 277 279 281 282 282 283 284 284 284 285 285 285 286 286 287 287
209 209 212 215 218 223 227 230 230 232 235 238 241 244 246 248 250 252 253 256 261 263 264 267 271 275 276 278 279 280 281 281 281 283 283 283 283 284 284 285 286 286 287
210 210 214 216 219 223 229 232 233 234 236 239 242 245 247 249 252 253 256 259 261 264 266 269 272 274 277 278 279 279 280 281 280 281 281 281 282 283 284 284 285 286 286
211 214 215 219 222 224 229 233 235 237 239 240 243 245 248 252 254 255 258 261 262 264 267 271 274 275 277 277 278 278 279 279 279 280 280 281 281 282 283 284 284 285 285
214 216 218 220 223 227 231 235 238 240 241 242 246 249 252 256 258 260 261 262 263 265 269 272 274 275 275 277 278 278 278 279 279 279 280 280 281 282 283 284 284 285 285
215 216 220 222 225 229 233 238 241 243 246 250 253 254 257 260 261 262 264 265 265 266 269 272 273 275 276 277 277 278 278 278 278 278 279 281 281 282 283 284 285 285 285
219 219 224 228 230 232 237 243 246 248 251 255 257 259 260 262 264 265 265 265 266 267 269 271 272 274 276 278 279 280 279 278 278 278 279 280 281 281 283 284 285 285 285
220 222 227 230 234 237 240 243 247 251 253 255 258 260 262 264 266 267 268 267 268 269 270 271 272 274 276 277 279 279 279 278 277 277 279 280 280 281 282 284 284 285 286
221 224 229 234 238 241 244 247 251 254 256 259 261 262 264 266 266 267 267 268 269 270 269 269 272 274 275 276 277 277 278 278 278 279 279 279 280 281 283 283 284 285 286
225 228 232 236 242 246 249 252 254 256 259 261 264 265 267 268 268 269 270 270 268 268 270 269 271 272 274 275 276 276 278 279 280 281 281 280 281 282 282 283 284 285 285
Height
5854 5855 5857 5858 5860 5861 5862 5863 5864 5865 5866 5867 5868 5868 5869 5870 5870 5871 5871 5871 5871 5871 5871 5871 5871 5871 5871 5871 5871 5871 5870 5870 5870 5869 5869 5868 5867 5867 5866 5865 5865 5864 5863
5850 5852 5854 5855 5857 5858 5859 5861 5862 5863 5864 5865 5866 5867 5867 5868 5869 5869 5869 5870 5870 5870 5870 5870 5870 5870 5870 5870 5870 5870 5869 5869 5868 5868 5867 5867 5866 5865 5864 5864 5863 5862 5861
5846 5848 5850 5852 5854 5855 5856 5858 5859 5861 5862 5863 5864 5865 5865 5866 5867 5867 5868 5868 5869 5869 5869 5869 5869 5869 5869 5869 5869 5868 5868 5867 5867 5866 5865 5865 5864 5863 5862 5862 5861 5860 5859
5841 5844 5846 5848 5850 5852 5853 5855 5856 5858 5859 5861 5862 5862 5863 5864 5865 5866 5866 5867 5867 5867 5868 5868 5868 5868 5867 5867 5867 5867 5866 5866 5865 5864 5863 5863 5862 5861 5860 5859 5858 5858 5857
5837 5839 5842 5844 5846 5848 5850 5851 5853 5855 5857 5858 5859 5860 5861 5862 5863 5864 5864 5865 5865 5866 5866 5866 5866 5866 5866 5865 5865 5865 5864 5864 5863 5862 5861 5860 5859 5858 5857 5856 5856 5855 5854
5831 5834 5837 5839 5842 5844 5846 5848 5850 5852 5854 5855 5856 5857 5858 5859 5861 5861 5862 5863 5863 5864 5864 5864 5864 5864 5864 5863 5863 5863 5862 5861 5861 5860 5859 5858 5857 5856 5855 5853 5852 5851 5851
5825 5828 5831 5834 5837 5840 5842 5844 5846 5848 5850 5852 5854 5855 5856 5857 5858 5859 5860 5861 5861 5862 5862 5862 5862 5862 5862 5861 5861 5860 5860 5859 5858 5857 5856 5855 5854 5853 5852 5850 5849 5848 5847
5818 5822 5825 5829 5832 5835 5838 5840 5842 5845 5847 5849 5850 5852 5853 5854 5855 5856 5857 5858 5859 5859 5859 5859 5859 5859 5859 5859 5858 5858 5857 5856 5855 5854 5853 5852 5851 5850 5848 5847 5845 5844 5844
5811 5815 5819 5823 5826 5830 5833 5836 5838 5841 5843 5845 5847 5848 5850 5851 5852 5853 5854 5855 5855 5856 5856 5856 5856 5856 5856 5856 5855 5855 5854 5854 5852 5851 5850 5849 5848 5846 5845 5843 5842 5841 5840
5805 5809 5813 5817 5821 5824 5828 5831 5834 5837 5839 5841 5843 5845 5846 5848 5849 5850 5851 5852 5852 5853 5853 5853 5853 5853 5853 5852 5852 5852 5851 5850 5849 5848 5847 5846 5844 5843 5841 5840 5838 5837 5836
5798 5803 5807 5812 5816 5819 5823 5826 5830 5832 5835 5837 5839 5841 5842 5844 5845 5846 5847 5848 5849 5849 5849 5849 5850 5850 5849 5849 5849 5848 5847 5847 5846 5844 5843 5842 5840 5839 5837 5836 5834 5833 5832
5791 5796 5802 5806 5810 5814 5818 5822 5825 5828 5831 5833 5835 5837 5838 5840 5841 5842 5843 5844 5845 5845 5845 5846 5846 5846 5846 5845 5845 5844 5843 5843 5842 5840 5839 5838 5836 5835 5833 5832 5830 5829 5827
5786 5791 5796 5800 5805 5809 5813 5817 5820 5823 5826 5829 5831 5833 5834 5835 5837 5838 5839 5840 5840 5841 5841 5842 5842 5842 5841 5841 5840 5840 5839 5838 5837 5836 5835 5833 5832 5830 5829 5827 5825 5824 5823
5780 5785 5790 5795 5799 5804 5808 5811 5815 5818 5821 5824 5826 5828 5829 5831 5832 5833 5835 5835 5836 5836 5837 5837 5837 5837 5836 5836 5835 5835 5834 5834 5832 5831 5829 5828 5827 5825 5824 5822 5821 5819 5818
5774 5780 5784 5789 5794 5798 5802 5806 5810 5813 5815 5818 5821 5823 5824 5826 5827 5829 5830 5831 5831 5832 5832 5832 5832 5832 5832 5831 5830 5830 5829 5828 5827 5826 5824 5823 5822 5820 5819 5817 5816 5814 5813
5768 5774 5779 5785 5790 5794 5797 5801 5804 5808 5810 5813 5815 5817 5819 5821 5822 5824 5825 5825 5826 5827 5827 5827 5827 5827 5826 5826 5825 5824 5824 5823 5822 5820 5819 5817 5816 5815 5813 5812 5810 5809 5808
5763 5768 5775 5781 5785 5788 5792 5795 5799 5802 5805 5807 5810 5812 5813 5815 5817 5818 5819 5820 5821 5821 5821 5821 5821 5821 5821 5820 5819 5819 5818 5817 5816 5814 5813 5812 5810 5809 5808 5806 5805 5803 5802
5759 5764 5770 5776 5780 5783 5786 5789 5793 5796 5799 5802 5804 5806 5808 5809 5811 5813 5814 5815 5815 5815 5815 5816 5816 5815 5815 5814 5813 5813 5812 5810 5809 5808 5807 5805 5804 5803 5801 5800 5799 5797 5795
5755 5760 5765 5771 5775 5778 5781 5784 5787 5790 5793 5796 5798 5800 5802 5804 5805 5807 5808 5808 5809 5809 5809 5810 5809 5809 5808 5808 5807 5806 5805 5804 5803 5801 5800 5799 5798 5796 5795 5793 5792 5790 5789
5751 5756 5761 5766 5770 5774 5777 5779 5782 5785 5787 5790 5792 5794 5796 5798 5799 5800 5801 5802 5802 5803 5803 5803 5802 5802 5802 5801 5800 5799 5798 5797 5796 5795 5793 5792 5791 5789 5788 5786 5785 5783 5781
5747 5753 5757 5762 5766 5769 5772 5774 5777 5779 5781 5784 5787 5788 5790 5791 5792 5793 5794 5795 5795 5796 5796 5796 5795 5795 5794 5794 5793 5792 5791 5790 5788 5787 5786 5785 5783 5782 5780 5779 5777 5775 5774
5744 5749 5753 5757 5761 5764 5767 5769 5771 5773 5776 5778 5780 5782 5783 5784 5785 5786 5787 5787 5788 5788 5788 5788 5788 5787 5787 5786 5785 5784 5783 5783 5780 5779 5778 5777 5775 5774 5772 5770 5769 5767 5765
5740 5744 5749 5753 5756 5759 5762 5765 5767 5768 5770 5772 5774 5775 5776 5778 5778 5778 5779 5779 5780 5780 5780 5780 5780 5779 5779 5778 5777 5776 5775 5774 5773 5771 5770 5768 5767 5765 5763 5761 5760 5758 5756
5736 5740 5744 5748 5752 5755 5757 5759 5761 5763 5765 5766 5767 5768 5769 5770 5771 5771 5771 5771 5771 5771 5771 5771 5771 5771 5770 5769 5769 5767 5766 5765 5764 5763 5761 5759 5757 5756 5754 5752 5750 5748 5746
5732 5736 5740 5743 5747 5750 5752 5753 5755 5757 5758 5760 5760 5761 5762 5762 5762 5762 5762 5762 5763 5763 5762 5762 5762 5761 5761 5760 5759 5758 5757 5756 5754 5754 5752 5750 5748 5746 5745 5743 5740 5738 5736
5729 5732 5736 5739 5741 5744 5746 5747 5749 5750 5751 5752 5753 5754 5754 5754 5754 5754 5754 5753 5753 5753 5753 5752 5752 5752 5751 5750 5749 5748 5747 5746 5745 5743 5742 5740 5738 5736 5734 5732 5729 5727 5725